Flag for Norway Weather past 2 weeks in Namsos, Norway

Now
50 °F

Scattered showers. Partly sunny.


Feels Like: 50 °F
Forecast: 49 / 57 °F
Wind: 2 mph from North

Location: Namsos Lufthavn

Current Time: Sep 4, 2015 at 12:40:47 PM

Latest Report: Sep 4, 2015 at 11:50 AM


Visibility: N/A

Pressure: 29.74 "Hg

Humidity: 94%

Dew point: 48 °F

Location of NamsosLocation

Historic Weather in Namsos — Graph

°F

Namsos temperature yesterday

Maximum temperature yesterday: 66 °F (at 3:20 PM)
Minimum temperature yesterday: 45 °F (at 6:20 AM)
Average temperature yesterday: 57 °F

Past Weeks' High & Low Weather Summary

 TemperatureHumidityPressure
High82 °F (Aug 23, 4:20 PM)100% (Aug 28, 12:50 PM)30.24 "Hg (Aug 28, 12:50 PM)
Low39 °F (Sep 2, 5:50 AM)28% (Aug 24, 5:50 PM)29.30 "Hg (Aug 28, 5:50 AM)
Average62 °F68%29.91 "Hg
* Reported Aug 20 11:50 AM — Sep 4 11:20 AM, Namsos, Weather by CustomWeather, © 2015

Note: Actual official high and low records may vary slightly from our data, if they occured in-between our weather recording intervals... More about our weather records

Advertising

Namsos weather history for previous 24 hours

 ConditionsComfort  
Time TempWeatherWind HumidityBarometerVisibility
11:20 AM
Fri, Sep 4
48 °FDrizzle. Broken clouds.6 mph94%29.74 "HgN/A
10:50 AM48 °FPartly sunny.2 mph94%29.74 "HgN/A
10:20 AM46 °FPartly sunny.5 mph93%29.74 "HgN/A
9:50 AM46 °FPartly sunny.1 mph93%29.74 "HgN/A
9:20 AM46 °FFog.No wind93%29.74 "HgN/A
8:50 AM43 °FFog.1 mph93%29.77 "HgN/A
8:20 AM43 °FFog.2 mph93%29.77 "HgN/A
7:50 AM41 °FFog.1 mph100%29.77 "HgN/A
7:20 AM39 °FSleet. Light fog.3 mph100%29.77 "HgN/A
6:50 AM41 °FSleet. Fog.5 mph93%29.77 "HgN/A
6:20 AM41 °FSleet. Fog.7 mph93%29.77 "HgN/A
9:50 PM
Thu, Sep 3
48 °FClear.1 mph87%29.86 "Hg10 mi
8:50 PM52 °FSunny.1 mph77%29.86 "Hg10 mi
8:20 PM54 °FSunny.2 mph72%29.86 "Hg10 mi
6:50 PM63 °FSunny.7 mph49%29.86 "Hg10 mi
6:20 PM61 °FSunny.No wind63%29.86 "Hg10 mi
5:50 PM64 °FSunny.2 mph56%29.89 "Hg10 mi
4:50 PM64 °FSunny.5 mph52%29.89 "Hg10 mi
3:50 PM66 °FSunny.2 mph46%29.89 "Hg10 mi
3:20 PM66 °FPassing clouds.3 mph49%29.92 "HgN/A
2:50 PM64 °FPassing clouds.3 mph49%29.92 "HgN/A
2:20 PM64 °FPassing clouds.5 mph46%29.92 "HgN/A
1:50 PM63 °FSunny.6 mph52%29.92 "Hg10 mi
1:20 PM63 °FPassing clouds.6 mph52%29.95 "HgN/A
12:50 PM61 °FPassing clouds.8 mph55%29.95 "HgN/A
Weather by CustomWeather, © 2015

See weather overviewHow to use our weather pages